,,,PA_Meas_PMT16A,,PR_Meas_QMR101_102,,RH_Meas_QMH101,,SR_Meas_QMS101,,TA_Meas_QMH101,,GenWind,,GenWind,
date,time,status,PA,status,PR,status,RH,status,SR,status,TA,status,DirAvg,status,SpdAvg,
2009-03-17, 00:00:04,VALID,999.538,VALID,0,VALID,92.8906,VALID,0,VALID,24.3647,VALID,40,VALID,0.214062,
2009-03-17, 00:01:04,VALID,999.554,VALID,0,VALID,92.8754,VALID,0,VALID,24.3666,VALID,40,VALID,0.198437,
2009-03-17, 00:02:04,VALID,999.507,VALID,0,VALID,92.8754,VALID,0.112286,VALID,24.347,VALID,40,VALID,0.194922,
2009-03-17, 00:03:04,VALID,999.498,VALID,0,VALID,93.0508,VALID,0.112286,VALID,24.3062,VALID,40,VALID,0.441406,
2009-03-17, 00:04:04,VALID,999.48,VALID,0,VALID,93.3179,VALID,0,VALID,24.3257,VALID,40,VALID,0.552344,
2009-03-17, 00:05:04,VALID,999.47,VALID,0,VALID,93.3866,VALID,0,VALID,24.3257,VALID,56,VALID,0.657031,
2009-03-17, 00:06:04,VALID,999.524,VALID,0,VALID,93.3484,VALID,0,VALID,24.3452,VALID,58,VALID,0.568359,
2009-03-17, 00:07:04,VALID,999.479,VALID,0,VALID,93.234,VALID,0,VALID,24.3452,VALID,58,VALID,0.529297,
2009-03-17, 00:08:04,VALID,999.53,VALID,0,VALID,93.1271,VALID,0,VALID,24.3257,VALID,63,VALID,0.366406,
2009-03-17, 00:09:04,VALID,999.503,VALID,0,VALID,93.1958,VALID,0,VALID,24.3452,VALID,63,VALID,0.286719,
2009-03-17, 00:10:04,VALID,999.509,VALID,0,VALID,93.1119,VALID,0,VALID,24.347,VALID,63,VALID,0.185547,
2009-03-17, 00:11:04,VALID,999.511,VALID,0,VALID,93.1348,VALID,0,VALID,24.347,VALID,63,VALID,0.0984375,
2009-03-17, 00:12:04,VALID,999.496,VALID,0,VALID,93.1348,VALID,0.112286,VALID,24.3257,VALID,63,VALID,0,
2009-03-17, 00:13:04,VALID,999.466,VALID,0,VALID,93.1577,VALID,0,VALID,24.347,VALID,63,VALID,0,
2009-03-17, 00:14:04,VALID,999.428,VALID,0,VALID,93.1729,VALID,0,VALID,24.3062,VALID,63,VALID,0,
2009-03-17, 00:15:04,VALID,999.401,VALID,0,VALID,93.2568,VALID,0,VALID,24.3062,VALID,63,VALID,0,
2009-03-17, 00:16:04,VALID,999.372,VALID,0,VALID,93.234,VALID,0,VALID,24.347,VALID,63,VALID,0,
2009-03-17, 00:17:04,VALID,999.38,VALID,0,VALID,93.2263,VALID,0,VALID,24.347,VALID,63,VALID,0,
2009-03-17, 00:18:04,VALID,999.338,VALID,0,VALID,93.2187,VALID,0,VALID,24.3666,VALID,63,VALID,0,
2009-03-17, 00:19:04,VALID,999.329,VALID,0,VALID,93.2416,VALID,0,VALID,24.3666,VALID,63,VALID,0.259375,
2009-03-17, 00:20:04,VALID,999.307,VALID,0,VALID,93.2492,VALID,0,VALID,24.3647,VALID,63,VALID,0.178125,
2009-03-17, 00:21:04,VALID,999.311,VALID,0,VALID,93.2416,VALID,0,VALID,24.4056,VALID,63,VALID,0.148438,
2009-03-17, 00:22:04,VALID,999.308,VALID,0,VALID,93.15,VALID,0,VALID,24.4056,VALID,63,VALID,0.0078125,
2009-03-17, 00:23:04,VALID,999.291,VALID,0,VALID,93.0814,VALID,0,VALID,24.4251,VALID,63,VALID,0.275781,
2009-03-17, 00:24:04,VALID,999.293,VALID,0,VALID,92.9822,VALID,0,VALID,24.4251,VALID,63,VALID,0.250391,
2009-03-17, 00:25:04,VALID,999.309,VALID,0,VALID,92.9669,VALID,0,VALID,24.4251,VALID,63,VALID,0.501172,
2009-03-17, 00:26:04,VALID,999.265,VALID,0,VALID,93.028,VALID,0,VALID,24.4642,VALID,63,VALID,0.530859,
2009-03-17, 00:27:04,VALID,999.24,VALID,0,VALID,92.9974,VALID,0,VALID,24.4642,VALID,63,VALID,0.610156,
2009-03-17, 00:28:04,VALID,999.242,VALID,0,VALID,93.0127,VALID,0,VALID,24.4428,VALID,73,VALID,0.618359,
2009-03-17, 00:29:04,VALID,999.233,VALID,0,VALID,93.1043,VALID,0,VALID,24.4428,VALID,74,VALID,0.583594,
2009-03-17, 00:30:04,VALID,999.223,VALID,0,VALID,93.15,VALID,0,VALID,24.4837,VALID,74,VALID,0.651953,
2009-03-17, 00:31:04,VALID,999.213,VALID,0,VALID,93.0966,VALID,0,VALID,24.4837,VALID,74,VALID,0.56875,
2009-03-17, 00:32:04,VALID,999.205,VALID,0,VALID,93.0203,VALID,0,VALID,24.4642,VALID,74,VALID,0.547656,
2009-03-17, 00:33:04,VALID,999.223,VALID,0,VALID,92.9745,VALID,0,VALID,24.4233,VALID,74,VALID,0.511328,
2009-03-17, 00:34:04,VALID,999.193,VALID,0,VALID,92.9211,VALID,0,VALID,24.4037,VALID,74,VALID,0.489453,
2009-03-17, 00:35:04,VALID,999.202,VALID,0,VALID,92.9059,VALID,0,VALID,24.3647,VALID,74,VALID,0.404687,
2009-03-17, 00:36:04,VALID,999.189,VALID,0,VALID,92.9669,VALID,0,VALID,24.3452,VALID,74,VALID,0.580469,
2009-03-17, 00:37:04,VALID,999.21,VALID,0,VALID,92.9593,VALID,0,VALID,24.347,VALID,74,VALID,0.567969,
2009-03-17, 00:38:04,VALID,999.173,VALID,0,VALID,92.9745,VALID,0,VALID,24.3257,VALID,74,VALID,0.591797,
2009-03-17, 00:39:04,VALID,999.152,VALID,0,VALID,93.0356,VALID,0,VALID,24.2866,VALID,74,VALID,0.535156,
2009-03-17, 00:40:04,VALID,999.139,VALID,0,VALID,93.0661,VALID,0,VALID,24.308,VALID,74,VALID,0.523047,
2009-03-17, 00:41:04,VALID,999.111,VALID,0,VALID,92.9974,VALID,0,VALID,24.308,VALID,74,VALID,0.419531,
2009-03-17, 00:42:04,VALID,999.113,VALID,0,VALID,93.0432,VALID,0,VALID,24.3062,VALID,74,VALID,0.464844,
2009-03-17, 00:43:04,VALID,999.103,VALID,0,VALID,93.0585,VALID,0,VALID,24.3275,VALID,74,VALID,0.442969,
2009-03-17, 00:44:04,VALID,999.083,VALID,0,VALID,93.0432,VALID,0,VALID,24.3062,VALID,74,VALID,0.369141,
2009-03-17, 00:45:04,VALID,999.101,VALID,0,VALID,92.9974,VALID,0,VALID,24.3257,VALID,73,VALID,0.269531,
2009-03-17, 00:46:04,VALID,999.075,VALID,0,VALID,92.9364,VALID,0,VALID,24.3257,VALID,73,VALID,0.0859375,
2009-03-17, 00:47:04,VALID,999.085,VALID,0,VALID,92.9669,VALID,0,VALID,24.347,VALID,73,VALID,0.158984,
2009-03-17, 00:48:04,VALID,999.108,VALID,0,VALID,93.0585,VALID,0,VALID,24.347,VALID,73,VALID,0.41875,
2009-03-17, 00:49:04,VALID,999.076,VALID,0,VALID,93.0508,VALID,0,VALID,24.3257,VALID,73,VALID,0.353516,
2009-03-17, 00:50:04,VALID,999.076,VALID,0,VALID,92.9898,VALID,0,VALID,24.3257,VALID,73,VALID,0.499219,
2009-03-17, 00:51:04,VALID,999.111,VALID,0,VALID,93.0203,VALID,0,VALID,24.3257,VALID,55,VALID,0.486719,
2009-03-17, 00:52:04,VALID,999.096,VALID,0,VALID,93.0737,VALID,0,VALID,24.3275,VALID,51,VALID,0.586719,
2009-03-17, 00:53:04,VALID,999.087,VALID,0,VALID,93.028,VALID,0,VALID,24.3062,VALID,50,VALID,0.396875,
2009-03-17, 00:54:04,VALID,999.067,VALID,0,VALID,93.0051,VALID,0,VALID,24.2866,VALID,50,VALID,0.5375,
2009-03-17, 00:55:04,VALID,999.107,VALID,0,VALID,93.1119,VALID,0,VALID,24.2866,VALID,50,VALID,0.354297,
2009-03-17, 00:56:04,VALID,999.058,VALID,0,VALID,93.1805,VALID,0,VALID,24.308,VALID,50,VALID,0.372656,
2009-03-17, 00:57:04,VALID,999.077,VALID,0,VALID,93.1653,VALID,0,VALID,24.308,VALID,50,VALID,0.462891,
2009-03-17, 00:58:04,VALID,999.101,VALID,0,VALID,93.1729,VALID,0,VALID,24.308,VALID,50,VALID,0.383594,
2009-03-17, 00:59:04,VALID,999.11,VALID,0,VALID,93.1882,VALID,0,VALID,24.308,VALID,50,VALID,0.471484,
2009-03-17, 01:00:04,VALID,999.136,VALID,0,VALID,93.2187,VALID,0,VALID,24.2866,VALID,50,VALID,0.397656,
2009-03-17, 01:01:04,VALID,999.105,VALID,0,VALID,93.2034,VALID,0,VALID,24.2885,VALID,50,VALID,0.371094,
2009-03-17, 01:02:04,VALID,999.14,VALID,0,VALID,93.2721,VALID,0,VALID,24.2885,VALID,50,VALID,0.335547,
2009-03-17, 01:03:04,VALID,999.126,VALID,0,VALID,93.2568,VALID,0,VALID,24.269,VALID,50,VALID,0.328516,
2009-03-17, 01:04:04,VALID,999.12,VALID,0,VALID,93.2874,VALID,0,VALID,24.2476,VALID,41,VALID,0.540234,
2009-03-17, 01:05:04,VALID,999.109,VALID,0,VALID,93.3637,VALID,0,VALID,24.2281,VALID,31,VALID,0.727344,
2009-03-17, 01:06:04,VALID,999.094,VALID,0,VALID,93.4628,VALID,0,VALID,24.2495,VALID,31,VALID,0.747656,
2009-03-17, 01:07:04,VALID,999.078,VALID,0,VALID,93.5315,VALID,0,VALID,24.269,VALID,31,VALID,0.743359,
2009-03-17, 01:08:04,VALID,999.071,VALID,0,VALID,93.5773,VALID,0,VALID,24.269,VALID,31,VALID,0.880469,
2009-03-17, 01:09:04,VALID,999.063,VALID,0,VALID,93.6078,VALID,0,VALID,24.2885,VALID,37,VALID,0.823828,
2009-03-17, 01:10:04,VALID,999.046,VALID,0,VALID,93.6154,VALID,0,VALID,24.2885,VALID,39,VALID,0.707031,
2009-03-17, 01:11:04,VALID,998.998,VALID,0,VALID,93.5926,VALID,0,VALID,24.2885,VALID,41,VALID,0.573438,
2009-03-17, 01:12:04,VALID,998.993,VALID,0,VALID,93.6154,VALID,0,VALID,24.308,VALID,41,VALID,0.494531,
2009-03-17, 01:13:04,VALID,998.985,VALID,0,VALID,93.5849,VALID,0,VALID,24.2476,VALID,41,VALID,0.334375,
2009-03-17, 01:14:04,VALID,998.977,VALID,0,VALID,93.5697,VALID,0,VALID,24.2476,VALID,41,VALID,0.370703,
2009-03-17, 01:15:04,VALID,998.96,VALID,0,VALID,93.5926,VALID,0,VALID,24.2476,VALID,41,VALID,0.375781,
2009-03-17, 01:16:04,VALID,998.987,VALID,0,VALID,93.6307,VALID,0,VALID,24.2281,VALID,41,VALID,0.574609,
2009-03-17, 01:17:04,VALID,999.01,VALID,0,VALID,93.6307,VALID,0,VALID,24.2281,VALID,41,VALID,0.438281,
2009-03-17, 01:18:04,VALID,999.015,VALID,0,VALID,93.6231,VALID,0,VALID,24.2299,VALID,41,VALID,0.489844,
2009-03-17, 01:19:04,VALID,999.019,VALID,0,VALID,93.6383,VALID,0,VALID,24.2086,VALID,41,VALID,0.382813,
2009-03-17, 01:20:04,VALID,999.06,VALID,0,VALID,93.6307,VALID,0,VALID,24.2086,VALID,41,VALID,0.250391,
2009-03-17, 01:21:04,VALID,999.064,VALID,0,VALID,93.6002,VALID,0,VALID,24.1891,VALID,41,VALID,0.138672,
2009-03-17, 01:22:04,VALID,999.083,VALID,0,VALID,93.6154,VALID,0,VALID,24.2104,VALID,41,VALID,0.144141,
2009-03-17, 01:23:04,VALID,999.068,VALID,0,VALID,93.6154,VALID,0,VALID,24.1891,VALID,41,VALID,0.00742187,
2009-03-17, 01:24:04,VALID,999.07,VALID,0,VALID,93.646,VALID,0,VALID,24.2104,VALID,41,VALID,0,
2009-03-17, 01:25:04,VALID,999.075,VALID,0,VALID,93.6841,VALID,0,VALID,24.2104,VALID,41,VALID,0,
2009-03-17, 01:26:04,VALID,999.027,VALID,0,VALID,93.7528,VALID,0,VALID,24.2299,VALID,41,VALID,0,
2009-03-17, 01:27:04,VALID,999.014,VALID,0,VALID,93.7451,VALID,0,VALID,24.2495,VALID,41,VALID,0,
2009-03-17, 01:28:04,VALID,998.984,VALID,0,VALID,93.7375,VALID,0,VALID,24.2299,VALID,41,VALID,0,
2009-03-17, 01:29:04,VALID,998.954,VALID,0,VALID,93.7375,VALID,0,VALID,24.2495,VALID,41,VALID,0.0648438,
2009-03-17, 01:30:04,VALID,998.946,VALID,0,VALID,93.7146,VALID,0,VALID,24.2495,VALID,41,VALID,0,
2009-03-17, 01:31:04,VALID,998.96,VALID,0,VALID,93.6994,VALID,0,VALID,24.2495,VALID,41,VALID,0,
2009-03-17, 01:32:04,VALID,998.917,VALID,0,VALID,93.6612,VALID,0,VALID,24.269,VALID,41,VALID,0,
2009-03-17, 01:33:04,VALID,998.878,VALID,0,VALID,93.6231,VALID,0,VALID,24.2476,VALID,41,VALID,0,
2009-03-17, 01:34:04,VALID,998.885,VALID,0,VALID,93.6002,VALID,0,VALID,24.269,VALID,41,VALID,0,
2009-03-17, 01:35:04,VALID,998.864,VALID,0,VALID,93.5926,VALID,0,VALID,24.2281,VALID,41,VALID,0,
2009-03-17, 01:36:04,VALID,998.859,VALID,0,VALID,93.6841,VALID,0,VALID,24.2476,VALID,41,VALID,0,
2009-03-17, 01:37:04,VALID,998.852,VALID,0,VALID,93.8062,VALID,0,VALID,24.269,VALID,41,VALID,0.247266,
2009-03-17, 01:38:04,VALID,998.822,VALID,0,VALID,93.7909,VALID,0,VALID,24.2671,VALID,41,VALID,0.141016,
2009-03-17, 01:39:04,VALID,998.821,VALID,0,VALID,93.7833,VALID,0,VALID,24.2671,VALID,41,VALID,0.0953125,
2009-03-17, 01:40:04,VALID,998.801,VALID,0,VALID,93.7375,VALID,0,VALID,24.308,VALID,41,VALID,0,
2009-03-17, 01:41:04,VALID,998.764,VALID,0,VALID,93.6688,VALID,0,VALID,24.308,VALID,41,VALID,0,
2009-03-17, 01:42:04,VALID,998.736,VALID,0,VALID,93.646,VALID,0,VALID,24.308,VALID,41,VALID,0,
2009-03-17, 01:43:04,VALID,998.758,VALID,0,VALID,93.6612,VALID,0,VALID,24.2866,VALID,41,VALID,0,
2009-03-17, 01:44:04,VALID,998.726,VALID,0,VALID,93.6841,VALID,0,VALID,24.2885,VALID,41,VALID,0,
2009-03-17, 01:45:04,VALID,998.702,VALID,0,VALID,93.7223,VALID,0,VALID,24.308,VALID,41,VALID,0,
2009-03-17, 01:46:04,VALID,998.688,VALID,0,VALID,93.7299,VALID,0,VALID,24.2866,VALID,41,VALID,0,
2009-03-17, 01:47:04,VALID,998.68,VALID,0,VALID,93.7299,VALID,0,VALID,24.308,VALID,41,VALID,0,
2009-03-17, 01:48:04,VALID,998.671,VALID,0,VALID,93.6917,VALID,0,VALID,24.3275,VALID,41,VALID,0.0164062,
2009-03-17, 01:49:04,VALID,998.687,VALID,0,VALID,93.6612,VALID,0,VALID,24.3062,VALID,41,VALID,0.335156,
2009-03-17, 01:50:04,VALID,998.688,VALID,0,VALID,93.6078,VALID,0,VALID,24.3275,VALID,41,VALID,0.526563,
2009-03-17, 01:51:04,VALID,998.683,VALID,0,VALID,93.5926,VALID,0,VALID,24.3666,VALID,42,VALID,0.719922,
2009-03-17, 01:52:04,VALID,998.678,VALID,0,VALID,93.4934,VALID,0,VALID,24.3666,VALID,52,VALID,0.742188,
2009-03-17, 01:53:04,VALID,998.685,VALID,0,VALID,93.4705,VALID,0,VALID,24.3647,VALID,62,VALID,0.696094,
2009-03-17, 01:54:04,VALID,998.686,VALID,0,VALID,93.4018,VALID,0,VALID,24.3861,VALID,62,VALID,0.370313,
2009-03-17, 01:55:04,VALID,998.681,VALID,0,VALID,93.4018,VALID,0,VALID,24.3861,VALID,62,VALID,0.185156,
2009-03-17, 01:56:04,VALID,998.689,VALID,0,VALID,93.4552,VALID,0,VALID,24.3861,VALID,62,VALID,0.440625,
2009-03-17, 01:57:04,VALID,998.697,VALID,0,VALID,93.5849,VALID,0,VALID,24.3647,VALID,62,VALID,0.627734,
2009-03-17, 01:58:04,VALID,998.702,VALID,0,VALID,93.5544,VALID,0,VALID,24.3842,VALID,62,VALID,0.607422,
2009-03-17, 01:59:04,VALID,998.684,VALID,0,VALID,93.5163,VALID,0,VALID,24.3842,VALID,62,VALID,0.734375,
2009-03-17, 02:00:04,VALID,998.707,VALID,0,VALID,93.4705,VALID,0,VALID,24.3842,VALID,52,VALID,0.656641,
2009-03-17, 02:01:04,VALID,998.685,VALID,0,VALID,93.4018,VALID,0,VALID,24.4056,VALID,44,VALID,0.511328,
2009-03-17, 02:02:04,VALID,998.669,VALID,0,VALID,93.3331,VALID,0,VALID,24.3647,VALID,44,VALID,0.270312,
2009-03-17, 02:03:04,VALID,998.682,VALID,0,VALID,93.3179,VALID,0,VALID,24.3666,VALID,44,VALID,0.327344,
2009-03-17, 02:04:04,VALID,998.675,VALID,0,VALID,93.3789,VALID,0,VALID,24.3666,VALID,44,VALID,0.431641,
2009-03-17, 02:05:04,VALID,998.642,VALID,0,VALID,93.4323,VALID,0,VALID,24.3257,VALID,43,VALID,0.462109,
2009-03-17, 02:06:04,VALID,998.648,VALID,0,VALID,93.4552,VALID,0,VALID,24.347,VALID,43,VALID,0.255859,
2009-03-17, 02:07:04,VALID,998.628,VALID,0,VALID,93.4934,VALID,0,VALID,24.347,VALID,43,VALID,0.448828,
2009-03-17, 02:08:04,VALID,998.61,VALID,0,VALID,93.4934,VALID,0,VALID,24.3666,VALID,43,VALID,0.413672,
2009-03-17, 02:09:04,VALID,998.594,VALID,0,VALID,93.5239,VALID,0,VALID,24.3666,VALID,43,VALID,0.438672,
2009-03-17, 02:10:04,VALID,998.595,VALID,0,VALID,93.5163,VALID,0,VALID,24.347,VALID,43,VALID,0.141016,
2009-03-17, 02:11:04,VALID,998.606,VALID,0,VALID,93.4781,VALID,0,VALID,24.347,VALID,43,VALID,0.0722656,
2009-03-17, 02:12:04,VALID,998.62,VALID,0,VALID,93.5086,VALID,0,VALID,24.347,VALID,43,VALID,0.124219,
2009-03-17, 02:13:04,VALID,998.622,VALID,0,VALID,93.501,VALID,0,VALID,24.347,VALID,43,VALID,0.177344,
2009-03-17, 02:14:04,VALID,998.624,VALID,0,VALID,93.5086,VALID,0,VALID,24.347,VALID,43,VALID,0.245703,
2009-03-17, 02:15:04,VALID,998.624,VALID,0,VALID,93.5315,VALID,0,VALID,24.347,VALID,43,VALID,0.437891,
2009-03-17, 02:16:04,VALID,998.672,VALID,0,VALID,93.5239,VALID,0,VALID,24.3275,VALID,43,VALID,0.562891,
2009-03-17, 02:17:04,VALID,998.648,VALID,0,VALID,93.5391,VALID,0,VALID,24.3275,VALID,43,VALID,0.662891,
2009-03-17, 02:18:04,VALID,998.639,VALID,0,VALID,93.5697,VALID,0,VALID,24.3666,VALID,44,VALID,0.703125,
2009-03-17, 02:19:04,VALID,998.638,VALID,0,VALID,93.5086,VALID,0,VALID,24.3666,VALID,44,VALID,0.669531,
2009-03-17, 02:20:04,VALID,998.652,VALID,0,VALID,93.4705,VALID,0,VALID,24.3666,VALID,44,VALID,0.461328,
2009-03-17, 02:21:04,VALID,998.683,VALID,0,VALID,93.4094,VALID,0,VALID,24.3647,VALID,44,VALID,0.325781,
2009-03-17, 02:22:04,VALID,998.657,VALID,0,VALID,93.356,VALID,0,VALID,24.3666,VALID,44,VALID,0.375,
2009-03-17, 02:23:04,VALID,998.688,VALID,0,VALID,93.3179,VALID,0,VALID,24.347,VALID,43,VALID,0.403125,
2009-03-17, 02:24:04,VALID,998.678,VALID,0,VALID,93.3637,VALID,0,VALID,24.347,VALID,43,VALID,0.469922,
2009-03-17, 02:25:04,VALID,998.687,VALID,0,VALID,93.4171,VALID,0,VALID,24.347,VALID,43,VALID,0.373828,
2009-03-17, 02:26:04,VALID,998.682,VALID,0,VALID,93.5315,VALID,0,VALID,24.3257,VALID,43,VALID,0.546875,
2009-03-17, 02:27:04,VALID,998.665,VALID,0,VALID,93.5697,VALID,0,VALID,24.347,VALID,43,VALID,0.476953,
2009-03-17, 02:28:04,VALID,998.67,VALID,0,VALID,93.5926,VALID,0,VALID,24.3452,VALID,43,VALID,0.314063,
2009-03-17, 02:29:04,VALID,998.693,VALID,0,VALID,93.5849,VALID,0,VALID,24.3452,VALID,44,VALID,0.371875,
2009-03-17, 02:30:04,VALID,998.649,VALID,0,VALID,93.6002,VALID,0,VALID,24.3452,VALID,43,VALID,0.348828,
2009-03-17, 02:31:04,VALID,998.646,VALID,0,VALID,93.6078,VALID,0,VALID,24.3647,VALID,43,VALID,0.373047,
2009-03-17, 02:32:04,VALID,998.648,VALID,0,VALID,93.5773,VALID,0,VALID,24.3861,VALID,57,VALID,0.412109,
2009-03-17, 02:33:04,VALID,998.644,VALID,0,VALID,93.5849,VALID,0,VALID,24.3666,VALID,57,VALID,0.29375,
2009-03-17, 02:34:04,VALID,998.671,VALID,0,VALID,93.5468,VALID,0,VALID,24.3666,VALID,57,VALID,0.0210938,
2009-03-17, 02:35:04,VALID,998.676,VALID,0,VALID,93.4857,VALID,0,VALID,24.3666,VALID,57,VALID,0,
2009-03-17, 02:36:04,VALID,998.676,VALID,0,VALID,93.4323,VALID,0,VALID,24.3275,VALID,57,VALID,0,
2009-03-17, 02:37:04,VALID,998.667,VALID,0,VALID,93.3866,VALID,0,VALID,24.3275,VALID,57,VALID,0,
2009-03-17, 02:38:04,VALID,998.675,VALID,0,VALID,93.3942,VALID,0,VALID,24.2866,VALID,57,VALID,0,
2009-03-17, 02:39:04,VALID,998.699,VALID,0,VALID,93.5315,VALID,0,VALID,24.2866,VALID,57,VALID,0,
2009-03-17, 02:40:04,VALID,998.703,VALID,0,VALID,93.646,VALID,0,VALID,24.3062,VALID,57,VALID,0.208594,
2009-03-17, 02:41:04,VALID,998.695,VALID,0,VALID,93.7299,VALID,0,VALID,24.3062,VALID,57,VALID,0.290625,
2009-03-17, 02:42:04,VALID,998.668,VALID,0,VALID,93.7375,VALID,0,VALID,24.3666,VALID,83,VALID,0.4,
2009-03-17, 02:43:04,VALID,998.694,VALID,0,VALID,93.6841,VALID,0,VALID,24.3666,VALID,83,VALID,0.348437,
2009-03-17, 02:44:04,VALID,998.685,VALID,0,VALID,93.6002,VALID,0,VALID,24.3666,VALID,83,VALID,0.451953,
2009-03-17, 02:45:04,VALID,998.659,VALID,0,VALID,93.5926,VALID,0,VALID,24.3861,VALID,83,VALID,0.383594,
2009-03-17, 02:46:04,VALID,998.62,VALID,0,VALID,93.5697,VALID,0,VALID,24.3861,VALID,83,VALID,0.428125,
2009-03-17, 02:47:04,VALID,998.638,VALID,0,VALID,93.5773,VALID,0,VALID,24.3861,VALID,83,VALID,0.471875,
2009-03-17, 02:48:04,VALID,998.586,VALID,0,VALID,93.6536,VALID,0,VALID,24.3861,VALID,83,VALID,0.33125,
2009-03-17, 02:49:04,VALID,998.573,VALID,0,VALID,93.5544,VALID,0,VALID,24.3861,VALID,83,VALID,0.148047,
2009-03-17, 02:50:04,VALID,998.549,VALID,0,VALID,93.5315,VALID,0,VALID,24.3861,VALID,83,VALID,0.0492188,
2009-03-17, 02:51:04,VALID,998.529,VALID,0,VALID,93.5315,VALID,0,VALID,24.3861,VALID,83,VALID,0,
2009-03-17, 02:52:04,VALID,998.497,VALID,0,VALID,93.5315,VALID,0,VALID,24.3861,VALID,83,VALID,0,
2009-03-17, 02:53:04,VALID,998.481,VALID,0,VALID,93.6002,VALID,0,VALID,24.3647,VALID,83,VALID,0,
2009-03-17, 02:54:04,VALID,998.48,VALID,0,VALID,93.5391,VALID,0,VALID,24.3666,VALID,83,VALID,0,
2009-03-17, 02:55:04,VALID,998.45,VALID,0,VALID,93.5468,VALID,0,VALID,24.3666,VALID,83,VALID,0,
2009-03-17, 02:56:04,VALID,998.453,VALID,0,VALID,93.5391,VALID,0,VALID,24.347,VALID,78,VALID,0.0675781,
2009-03-17, 02:57:04,VALID,998.424,VALID,0,VALID,93.5391,VALID,0,VALID,24.347,VALID,77,VALID,0.482422,
2009-03-17, 02:58:04,VALID,998.389,VALID,0,VALID,93.5391,VALID,0,VALID,24.347,VALID,77,VALID,0.572656,
2009-03-17, 02:59:04,VALID,998.414,VALID,0,VALID,93.6154,VALID,0,VALID,24.347,VALID,73,VALID,0.55,
2009-03-17, 03:00:04,VALID,998.397,VALID,0,VALID,93.6536,VALID,0,VALID,24.347,VALID,73,VALID,0.495703,
2009-03-17, 03:01:04,VALID,998.388,VALID,0,VALID,93.6231,VALID,0,VALID,24.3666,VALID,73,VALID,0.518359,
2009-03-17, 03:02:04,VALID,998.369,VALID,0,VALID,93.5773,VALID,0,VALID,24.347,VALID,73,VALID,0.414063,
2009-03-17, 03:03:04,VALID,998.324,VALID,0,VALID,93.5163,VALID,0,VALID,24.3666,VALID,73,VALID,0.548047,
2009-03-17, 03:04:04,VALID,998.349,VALID,0,VALID,93.4934,VALID,0,VALID,24.3666,VALID,74,VALID,0.55,
2009-03-17, 03:05:04,VALID,998.33,VALID,0,VALID,93.4781,VALID,0,VALID,24.3666,VALID,74,VALID,0.450781,
2009-03-17, 03:06:04,VALID,998.331,VALID,0,VALID,93.4552,VALID,0,VALID,24.347,VALID,74,VALID,0.326953,
2009-03-17, 03:07:04,VALID,998.307,VALID,0,VALID,93.4628,VALID,0,VALID,24.347,VALID,74,VALID,0.349609,
2009-03-17, 03:08:04,VALID,998.332,VALID,0,VALID,93.4857,VALID,0,VALID,24.3666,VALID,74,VALID,0.298047,
2009-03-17, 03:09:04,VALID,998.29,VALID,0,VALID,93.4628,VALID,0,VALID,24.3452,VALID,74,VALID,0.408594,
2009-03-17, 03:10:04,VALID,998.279,VALID,0,VALID,93.4781,VALID,0,VALID,24.347,VALID,74,VALID,0.357422,
2009-03-17, 03:11:04,VALID,998.272,VALID,0,VALID,93.4476,VALID,0,VALID,24.347,VALID,74,VALID,0.396484,
2009-03-17, 03:12:04,VALID,998.293,VALID,0,VALID,93.4552,VALID,0,VALID,24.3257,VALID,74,VALID,0.404687,
2009-03-17, 03:13:04,VALID,998.283,VALID,0,VALID,93.4552,VALID,0,VALID,24.3452,VALID,74,VALID,0.333984,
2009-03-17, 03:14:04,VALID,998.294,VALID,0,VALID,93.4476,VALID,0,VALID,24.347,VALID,74,VALID,0.25625,
2009-03-17, 03:15:04,VALID,998.296,VALID,0,VALID,93.4934,VALID,0,VALID,24.347,VALID,74,VALID,0.142188,
2009-03-17, 03:16:04,VALID,998.309,VALID,0,VALID,93.5315,VALID,0,VALID,24.3452,VALID,74,VALID,0.178125,
2009-03-17, 03:17:04,VALID,998.33,VALID,0,VALID,93.5468,VALID,0,VALID,24.347,VALID,74,VALID,0.401563,
2009-03-17, 03:18:04,VALID,998.332,VALID,0,VALID,93.6002,VALID,0,VALID,24.3666,VALID,78,VALID,0.358594,
2009-03-17, 03:19:04,VALID,998.327,VALID,0,VALID,93.5926,VALID,0,VALID,24.3879,VALID,143,VALID,0.53125,
2009-03-17, 03:20:04,VALID,998.354,VALID,0,VALID,93.5926,VALID,0,VALID,24.3861,VALID,148,VALID,0.382422,
2009-03-17, 03:21:04,VALID,998.358,VALID,0,VALID,93.6002,VALID,0,VALID,24.3666,VALID,140,VALID,0.617188,
2009-03-17, 03:22:04,VALID,998.332,VALID,0,VALID,93.646,VALID,0,VALID,24.3861,VALID,136,VALID,0.583203,
2009-03-17, 03:23:04,VALID,998.361,VALID,0,VALID,93.6002,VALID,0,VALID,24.4056,VALID,120,VALID,0.517187,
2009-03-17, 03:24:04,VALID,998.363,VALID,0,VALID,93.5239,VALID,0,VALID,24.4056,VALID,120,VALID,0.508984,
2009-03-17, 03:25:04,VALID,998.332,VALID,0,VALID,93.4705,VALID,0,VALID,24.4056,VALID,120,VALID,0.462891,
2009-03-17, 03:26:04,VALID,998.36,VALID,0,VALID,93.4018,VALID,0,VALID,24.4251,VALID,120,VALID,0.220313,
2009-03-17, 03:27:04,VALID,998.336,VALID,0,VALID,93.3866,VALID,0,VALID,24.4251,VALID,120,VALID,0.429688,
2009-03-17, 03:28:04,VALID,998.337,VALID,0,VALID,93.3103,VALID,0,VALID,24.4056,VALID,120,VALID,0.367578,
2009-03-17, 03:29:04,VALID,998.369,VALID,0,VALID,93.2874,VALID,0,VALID,24.4056,VALID,120,VALID,0.163672,
2009-03-17, 03:30:04,VALID,998.375,VALID,0,VALID,93.234,VALID,0,VALID,24.4075,VALID,120,VALID,0,
2009-03-17, 03:31:04,VALID,998.401,VALID,0,VALID,93.2263,VALID,0,VALID,24.4075,VALID,120,VALID,0.003125,
2009-03-17, 03:32:04,VALID,998.437,VALID,0,VALID,93.2263,VALID,0,VALID,24.3861,VALID,120,VALID,0,
2009-03-17, 03:33:04,VALID,998.418,VALID,0,VALID,93.2187,VALID,0,VALID,24.3452,VALID,120,VALID,0.00351562,
2009-03-17, 03:34:04,VALID,998.423,VALID,0,VALID,93.2111,VALID,0,VALID,24.3666,VALID,120,VALID,0,
2009-03-17, 03:35:04,VALID,998.426,VALID,0,VALID,93.1958,VALID,0,VALID,24.3666,VALID,120,VALID,0,
2009-03-17, 03:36:04,VALID,998.428,VALID,0,VALID,93.2492,VALID,0,VALID,24.3666,VALID,120,VALID,0.0597656,
2009-03-17, 03:37:04,VALID,998.433,VALID,0,VALID,93.2416,VALID,0,VALID,24.3666,VALID,120,VALID,0.205469,
2009-03-17, 03:38:04,VALID,998.404,VALID,0,VALID,93.2797,VALID,0,VALID,24.3861,VALID,120,VALID,0.258594,
2009-03-17, 03:39:04,VALID,998.414,VALID,0,VALID,93.2263,VALID,0,VALID,24.3666,VALID,117,VALID,0.435937,
2009-03-17, 03:40:04,VALID,998.435,VALID,0,VALID,93.1424,VALID,0,VALID,24.3666,VALID,82,VALID,0.594922,
2009-03-17, 03:41:04,VALID,998.45,VALID,0,VALID,93.1043,VALID,0,VALID,24.3666,VALID,83,VALID,0.377344,
2009-03-17, 03:42:04,VALID,998.439,VALID,0,VALID,93.028,VALID,0,VALID,24.347,VALID,83,VALID,0.405859,
2009-03-17, 03:43:04,VALID,998.444,VALID,0,VALID,93.0966,VALID,0,VALID,24.3666,VALID,83,VALID,0.305078,
2009-03-17, 03:44:04,VALID,998.429,VALID,0,VALID,92.9517,VALID,0,VALID,24.347,VALID,83,VALID,0.300391,
2009-03-17, 03:45:04,VALID,998.421,VALID,0,VALID,93.0585,VALID,0,VALID,24.347,VALID,83,VALID,0.276563,
2009-03-17, 03:46:04,VALID,998.439,VALID,0,VALID,93.0585,VALID,0,VALID,24.347,VALID,83,VALID,0.13125,
2009-03-17, 03:47:04,VALID,998.467,VALID,0,VALID,93.1348,VALID,0,VALID,24.347,VALID,83,VALID,0.164844,
2009-03-17, 03:48:04,VALID,998.468,VALID,0,VALID,93.1958,VALID,0,VALID,24.347,VALID,83,VALID,0.235547,
2009-03-17, 03:49:04,VALID,998.499,VALID,0,VALID,93.2492,VALID,0,VALID,24.3275,VALID,40,VALID,0.540234,